Regional Weather Roundup
Issued by NWS Lake Charles, LA

Home | Current Version | Previous Version | Text Only | Print | Product List | Glossary On
Versions: 1 2 3 4 5 6 7 8 9 10 11 12 13 14 15 16 17 18 19 20 21 22 23 24 25 26 27 28 29 30 31 32 33 34 35 36 37 38 39 40 41 42 43 44 45 46 47 48 49 50
000
ASUS44 KLCH 241310
RWRLCH
RWRLCH
REGIONAL WEATHER ROUNDUP
NATIONAL WEATHER SERVICE LAKE CHARLES LA
800 AM CDT THU JUL 24 2014

Note: "fair" indicates few or no clouds below 12,000 feet with no
significant weather and/or obstructions to visibility.


ACROSS SOUTHEAST TEXAS

CITY           SKY/WX    TMP DP  RH WIND       PRES   REMARKS
BEAUMONT       PTSUNNY   75  72  90 N12       30.02R
BEAUMONT CITY    N/A     72  69  91 N6        30.03R
ORANGE         PTSUNNY   74  74 100 N6        30.04R
JASPER         SUNNY     71  68  89 N5        30.06R
$$

ACROSS CENTRAL LOUISIANA

CITY           SKY/WX    TMP DP  RH WIND       PRES   REMARKS
LEESVILLE      SUNNY     71  69  93 N6        30.02S
FULLERTON        N/A     75  70  84 NE3       30.00S
ALEXANDRIA INT SUNNY     74  69  85 N6        30.01R
ESLER FIELD    SUNNY     75  70  84 CALM      30.02S
DERIDDER         N/A     72  69  90 CALM      30.04S
OAKDALE        MOSUNNY   73  72  94 N5        30.02R
OPELOUSAS      PTSUNNY   73  72  95 N6        30.01S
$$

ACROSS SOUTHWEST AND SOUTH CENTRAL LOUISIANA

CITY           SKY/WX    TMP DP  RH WIND       PRES   REMARKS
SULPHUR        MOSUNNY   75  73  91 N7        30.02S
LAKE CHARLES   PTSUNNY   76  71  85 N6        30.02R HAZE
CHENNAULT INT  PTSUNNY   73  72  94 N5        30.03R
CAMERON PHI    PTSUNNY   75  73  94 N10G16    30.02R
DEQUINCY         N/A     72  69  92 CALM      30.03R
JENNINGS       CLOUDY    73  73  98 CALM      30.01R
LAFAYETTE      SUNNY     77  74  90 N5        30.00R
NEW IBERIA     CLOUDY    79  75  87 E6        30.00R
ABBEVILLE      PTSUNNY   75  74  96 CALM      30.00R
PATTERSON      SUNNY     77  75  94 NE6       30.03S
SALT POINT       N/A     80  76  87 CALM      29.98R
$$

SELECTED SITES ACROSS THE REGION

CITY           SKY/WX    TMP DP  RH WIND       PRES   REMARKS
HOUSTON BUSH   PTSUNNY   75  71  87 N3        30.02R
HOUSTON HOBBY  MOSUNNY   79  72  79 W5        30.01R
GALVESTON      PTSUNNY   81  75  82 CALM      30.01R
COLLEGE STAT   MOSUNNY   77  68  73 NE12      30.04R
CONROE         MOSUNNY   74  69  85 N5        30.04R
HUNTSVILLE     PTSUNNY   72  67  84 CALM      30.05R
LUFKIN         SUNNY     74  68  81 NW5       30.05R
SHREVEPORT     CLOUDY    71  68  90 NW5       30.05S
MONROE         FOG       71  70  96 NW3       30.04R VSB 3/4
NATCHEZ MS     CLOUDY    72  70  94 CALM      30.03S
BATON ROUGE    SUNNY     76  73  91 E3        30.01R
N.O. INTL ARPT MOSUNNY   80  74  81 CALM      30.00R
SLIDELL        SUNNY     77  73  87 CALM      30.00R
$$

MARINE REPORTS

STATION/POSITION TIME  TEMP    WIND        PRES    VSBY  WAVE
                       AIR SEA DIR/SP/G                  HT/PER
                 (UTC) (F)     (DEG/KT/KT) (MB)    (MI)  (FT/S)
BUOY 30 S HIGH I 1200   81 86  270/  4/  6 1015.2
SEA RIM ST PARK  1300   75     360/  8/  9 1017.0R
PORT ARTHUR      1300      87  340/  7/  9 1016.5R
SABINE PASS N    1300   77 86   10/ 11/ 13 1016.5S
TEXAS POINT      1300   76 86  360/ 12/ 14 1016.5R
CALCASIEU PASS   1300   76 85   10/ 12/ 15 1017.2R
LK CHARLES BEACH 1300   73 82              1017.2S
MARSH ISLAND     1200   83     250/  6/  8   N/A
FRESH WATER LOCK 1300   80 87  330/  2/  3 1015.5R
AMERADA PASS     1300   78 82   10/  2/  3 1015.4S
$$


USA.gov is the U.S. government's official web portal to all federal, state and local government web resources and services.